TimeCST,TemperatureF,Dew PointF,Humidity,Sea Level PressureIn,VisibilityMPH,Wind Direction,Wind SpeedMPH,Gust SpeedMPH,PrecipitationIn,Events,Conditions,WindDirDegrees,DateUTC
12:15 AM,24.6,16.5,71,30.19,10.0,North,5.8,-,N/A,,Clear,350,2013-02-17 06:15:00
12:35 AM,22.8,16.3,76,30.20,10.0,North,5.8,-,N/A,,Clear,360,2013-02-17 06:35:00
12:55 AM,22.8,16.0,75,30.20,10.0,NNW,6.9,-,N/A,,Clear,340,2013-02-17 06:55:00
1:15 AM,23.0,15.4,73,30.20,10.0,NNW,4.6,-,N/A,,Clear,330,2013-02-17 07:15:00
1:35 AM,23.0,14.9,71,30.20,10.0,NW,3.5,-,N/A,,Clear,320,2013-02-17 07:35:00
1:55 AM,22.3,15.6,76,30.20,10.0,NW,4.6,-,N/A,,Clear,320,2013-02-17 07:55:00
2:35 AM,21.7,15.3,76,30.20,10.0,NNW,4.6,-,N/A,,Clear,340,2013-02-17 08:35:00
2:55 AM,21.4,15.6,78,30.20,10.0,North,5.8,-,N/A,,Clear,350,2013-02-17 08:55:00
3:15 AM,21.2,15.1,77,30.21,10.0,North,4.6,-,N/A,,Clear,350,2013-02-17 09:15:00
4:14 AM,19.4,12.2,74,30.22,10.0,North,4.6,-,N/A,,Clear,350,2013-02-17 10:14:00
4:15 AM,19.6,13.1,76,30.22,10.0,North,4.6,-,N/A,,Clear,350,2013-02-17 10:15:00
4:35 AM,19.4,13.1,76,30.23,10.0,North,4.6,-,N/A,,Clear,350,2013-02-17 10:35:00
4:55 AM,19.4,12.7,75,30.23,10.0,North,3.5,-,N/A,,Clear,350,2013-02-17 10:55:00
5:15 AM,18.5,12.7,78,30.24,10.0,Calm,Calm,-,N/A,,Clear,0,2013-02-17 11:15:00
5:35 AM,19.0,12.2,75,30.24,10.0,North,3.5,-,N/A,,Clear,360,2013-02-17 11:35:00
5:55 AM,18.5,12.2,76,30.25,10.0,Calm,Calm,-,N/A,,Clear,0,2013-02-17 11:55:00
6:15 AM,19.2,12.2,74,30.25,10.0,Calm,Calm,-,N/A,,Clear,0,2013-02-17 12:15:00
6:35 AM,17.1,11.7,79,30.25,10.0,Calm,Calm,-,N/A,,Clear,0,2013-02-17 12:35:00
6:55 AM,17.6,12.0,79,30.26,10.0,Calm,Calm,-,N/A,,Clear,0,2013-02-17 12:55:00
7:15 AM,19.0,14.4,82,30.27,10.0,Calm,Calm,-,N/A,,Clear,0,2013-02-17 13:15:00
7:35 AM,21.2,13.5,72,30.28,10.0,Calm,Calm,-,N/A,,Clear,0,2013-02-17 13:35:00
7:55 AM,22.1,12.4,66,30.28,10.0,Calm,Calm,-,N/A,,Clear,0,2013-02-17 13:55:00
8:15 AM,23.5,10.8,58,30.28,10.0,East,3.5,-,N/A,,Clear,100,2013-02-17 14:15:00
8:35 AM,24.3,11.3,58,30.27,10.0,Calm,Calm,-,N/A,,Clear,0,2013-02-17 14:35:00
8:55 AM,25.5,12.7,58,30.27,10.0,Calm,Calm,-,N/A,,Clear,0,2013-02-17 14:55:00
9:15 AM,26.4,13.1,57,30.27,10.0,East,3.5,-,N/A,,Clear,90,2013-02-17 15:15:00
9:35 AM,27.1,12.2,53,30.28,10.0,Calm,Calm,-,N/A,,Clear,0,2013-02-17 15:35:00
9:55 AM,28.0,13.1,54,30.28,10.0,ESE,4.6,-,N/A,,Clear,110,2013-02-17 15:55:00
10:15 AM,28.8,14.0,54,30.28,10.0,ESE,3.5,-,N/A,,Clear,120,2013-02-17 16:15:00
10:35 AM,29.5,13.6,52,30.28,10.0,Calm,Calm,-,N/A,,Clear,0,2013-02-17 16:35:00
10:55 AM,31.5,15.3,51,30.27,10.0,SE,4.6,-,N/A,,Clear,140,2013-02-17 16:55:00
11:15 AM,32.0,14.4,48,30.27,10.0,SSE,6.9,-,N/A,,Clear,150,2013-02-17 17:15:00
11:35 AM,32.9,15.3,48,30.26,10.0,South,5.8,-,N/A,,Clear,180,2013-02-17 17:35:00
11:55 AM,33.3,15.6,48,30.25,10.0,SSW,5.8,-,N/A,,Clear,210,2013-02-17 17:55:00
12:15 PM,34.7,16.5,48,30.25,10.0,SSE,6.9,-,N/A,,Clear,150,2013-02-17 18:15:00
12:55 PM,36.1,16.9,46,30.24,10.0,SSE,5.8,-,N/A,,Clear,150,2013-02-17 18:55:00
1:00 PM,35.6,17.6,48,30.23,10.0,SSE,5.8,-,N/A,,Clear,150,2013-02-17 19:00:00
1:15 PM,36.3,17.1,46,30.23,10.0,SSE,3.5,-,N/A,,Clear,160,2013-02-17 19:15:00
1:35 PM,37.4,17.4,44,30.22,10.0,SE,5.8,-,N/A,,Clear,140,2013-02-17 19:35:00
1:55 PM,38.1,18.1,45,30.20,10.0,SE,8.1,-,N/A,,Clear,140,2013-02-17 19:55:00
2:15 PM,38.3,16.7,42,30.19,10.0,ESE,3.5,-,N/A,,Clear,120,2013-02-17 20:15:00
2:35 PM,38.8,16.0,40,30.19,10.0,SE,4.6,-,N/A,,Clear,130,2013-02-17 20:35:00
2:55 PM,38.7,16.0,40,30.19,10.0,SE,3.5,-,N/A,,Clear,130,2013-02-17 20:55:00
3:15 PM,38.7,17.4,42,30.18,10.0,SE,8.1,-,N/A,,Clear,140,2013-02-17 21:15:00
3:55 PM,38.7,17.8,43,30.17,10.0,SE,6.9,-,N/A,,Clear,130,2013-02-17 21:55:00
4:15 PM,39.0,17.6,42,30.16,10.0,ESE,10.4,-,N/A,,Clear,120,2013-02-17 22:15:00
4:55 PM,37.0,19.4,49,30.16,10.0,SE,8.1,-,N/A,,Clear,140,2013-02-17 22:55:00
5:15 PM,35.4,19.4,52,30.15,10.0,ESE,6.9,-,N/A,,Clear,110,2013-02-17 23:15:00
5:35 PM,34.7,20.3,56,30.15,10.0,ESE,6.9,-,N/A,,Clear,110,2013-02-17 23:35:00
5:55 PM,33.8,20.1,57,30.14,10.0,East,6.9,-,N/A,,Clear,100,2013-02-17 23:55:00
6:15 PM,32.9,20.3,60,30.14,10.0,East,6.9,-,N/A,,Clear,100,2013-02-18 00:15:00
6:35 PM,32.5,20.8,62,30.13,10.0,East,8.1,-,N/A,,Clear,90,2013-02-18 00:35:00
7:15 PM,32.5,21.7,64,30.13,10.0,East,6.9,-,N/A,,Clear,90,2013-02-18 01:15:00
7:55 PM,32.7,22.3,65,30.13,10.0,ESE,9.2,-,N/A,,Clear,110,2013-02-18 01:55:00
8:35 PM,32.4,21.7,65,30.13,10.0,ESE,6.9,-,N/A,,Clear,120,2013-02-18 02:35:00
8:55 PM,32.2,21.6,65,30.13,10.0,ESE,5.8,-,N/A,,Clear,120,2013-02-18 02:55:00
9:15 PM,32.0,21.2,64,30.14,10.0,ESE,5.8,-,N/A,,Clear,120,2013-02-18 03:15:00
9:35 PM,31.6,21.2,65,30.12,10.0,ESE,5.8,-,N/A,,Clear,120,2013-02-18 03:35:00
9:55 PM,31.5,21.2,66,30.12,10.0,ESE,5.8,-,N/A,,Clear,120,2013-02-18 03:55:00
10:15 PM,31.8,20.8,64,30.12,10.0,ESE,5.8,-,N/A,,Clear,120,2013-02-18 04:15:00
10:35 PM,31.6,21.4,66,30.11,10.0,ESE,6.9,-,N/A,,Clear,110,2013-02-18 04:35:00
10:55 PM,31.8,21.2,65,30.10,10.0,ESE,6.9,-,N/A,,Clear,120,2013-02-18 04:55:00
11:15 PM,32.0,21.0,64,30.10,10.0,ESE,6.9,-,N/A,,Clear,120,2013-02-18 05:15:00
11:35 PM,32.0,20.8,63,30.10,10.0,ESE,6.9,-,N/A,,Clear,120,2013-02-18 05:35:00